Location: Fazenda Monte Alegre
(4.8500°S, 38.0333°W)
Time: 14:13:31
(UTC+00:00)

Okean 1 Rocket - Pass Details

Date: 24 September 2020
Orbit: 606 x 635 km, 82.5° (Epoch: 19 October)

Event Time Altitude Azimuth Distance (km) Brightness Sun altitude
Rises 21:16:32 0° 175° (S) 2,909 6.5 -13.0°
Reaches altitude 10° 21:18:50 10° 169° (S) 2,004 5.6 -13.6°
Maximum altitude 21:23:08 49° 94° (E) 811 3.2 -14.7°
Drops below altitude 10° 21:27:26 10° 19° (NNE) 2,005 5.5 -15.8°
Sets 21:29:43 0° 14° (NNE) 2,911 6.3 -16.3°
